CZ-6A DEB, 54318

Orbit data source: Space-Track

CZ-6A DEB, 54318 is space debris in SSO originally from a launch on Fri, 11 Nov 2022 UTC launched from the Taiyaun Space Center, China (TSC). Debris objects in space refer to the collection of defunct objects orbiting the Earth. Examples of debris include non-operational satellites, rocket bodies, and fragments generated from explosions, collisions, or faulty payload assembly.

Loading next visibility...
Identifier
54318, 2022-151BM
Orbit
SSO
Country
Flag of CNCN / PRC
Related business
Manufacturer
SAST
Mission
Spacecraft
Bus & Motor
Unknown
Mass
Unknown
Launch date (UTC)
2022-11-11 (3 years ago)
Launch vehicle
Unknown
Launch site
Taiyaun Space Center, China (TSC)
Object type
Payload
Rocket body
Debris
Shape & HBR
Unknown shape, 0.1 m
Radar Cross Section
Small (<0.1 m²)

Expand to show TLE details & history
Last TLE update: 16 hours ago

TLE from 16 hours ago
0 CZ-6A DEB
1 54318U 22151BM  25351.93898041  .00001005  00000-0  57098-3 0  9998
2 54318  98.8388 349.7125 0052122 132.3109 228.2497 14.11457150158848
Epoch: 2025-12-17T22:32Z
TLE epoch observation values (Epoch: 2025-12-17T22:32:07.907Z)
Latitude
0.00002°
Longitude
-75.1221°
Altitude
882.504 km
Speed
7.398 km/s
True Right ascension
23h 18m 50s
True Declination
0° 00' 00"
Sunlit
Object was in daylight at epoch
Visualization orbit readout
Latitude
Unknown
Longitude
Unknown
Altitude
Unknown
Speed
Unknown
Apparent Right ascension
Unknown
Apparent Declination
Unknown
Sunlit
N/A
Visualization observer readout
Local Sidereal Time
13:03:42
Azimuth
Unknown
Elevation
Unknown
Doppler factor
Unknown
Orbital elements
Apogee altitude
889.248 km
Perigee altitude
813.883 km
Semi-major axis
7,229.703 km
Eccentricity
0.00521
Inclination
98.8388°
RAAN
349.7125°
Arg. of periapsis
132.3109°
True anomaly
227.80603°
Mean anomaly
228.2497°
Eccentric anomaly
228.02767°
Mean motion
3.53071 °/min
Orbital period
101.96 mins
BSTAR
0.00057098
Loading maneuver chart data...
Computing Atmospheric mass density...
Loading historical data...
Loading historical data...
Loading historical data...
Loading historical data...
Loading historical data...
Loading historical data...
Loading historical data...

Documentation

Showing up to 5 results
|